195P/Hill (2009)

Japanese version
Home page
Total 6,336 html files since Dec. 4, 1995
Updated on April 4, 2008

---------------------------------------------------------------------

* Profile

Designation 195P/2006 W4
Discovery Date November 22, 2006
Magnitude 19.3 mag
Discoverer R. E. Hill (Catalina Sky Survey)

* Orbital Elements

                    Epoch = 2009 Jan.  9.0 TT
     T = 2009 Jan. 21.0916 TT         Peri. = 249.6184
     e = 0.314866                     Node  = 243.2496  2000.0
     q = 4.438583 AU                  Incl. =  36.3618
       a =  6.478413 AU    n = 0.0597725    P =  16.49 years

* Magnitudes Graph

        m1 = 8.5 + 5 log d + 10.0 log r

---------------------------------------------------------------------

The orbital elements are calculated by B. G. Marsden and printed on IAUC 8902.
The magnitudes graphs are made with Comet for Windows.

---------------------------------------------------------------------

Copyright(C) 1995-2008 Seiichi Yoshida (comet@aerith.net). All rights reserved.